Powrót do katalogu

COSMOS 2251 DEB

AktywnyLEO
NORAD 34389·DEBRIS·🇷🇺 Russia

Wystrzelony Jun 16, 1993 z Plesetsk Cosmodrome

Loading…

Następne Przeloty (najbliższe 24 godziny)

TLE

ŚwieżeSource: Space-Track

Epoka: Sep 14, 2026, 12:14 UTC

1 34389U 93036QE  26257.50974410  .00000661  00000-0  20801-3 0  9997
2 34389  74.0165  98.1728 0029061 147.4473 229.8389 14.42107678919870

Śledź COSMOS 2251 DEB w czasie rzeczywistym z AllMySat

Download on the App Store